FW3929 Weather Reports


Display with metric or nautical units.
time (UTC)temp
F
wind
direction
speed
MPH
gust
MPH
rain 1hr
in
rain 24hr
in
rain mn
in
humidity
%
barometer
mb
20260507231539 50 274 0.0 3.0 0.00 1.37 1.37 99 1002.5
20260507230037 50 284 0.0 6.0 0.00 1.37 1.37 100 1003.0
20260507224539 50 220 3.0 9.0 0.00 1.37 1.37 100 1002.9
20260507223033 50 201 1.0 9.0 0.01 1.37 1.37 100 1002.9
20260507221536 50 239 3.0 8.0 0.01 1.37 1.37 100 1003.2
20260507220032 50 268 2.0 11.0 0.02 1.37 1.37 99 1003.2
20260507214531 50 309 2.0 6.0 0.03 1.37 1.37 99 1003.4
20260507213032 50 207 2.0 7.0 0.04 1.36 1.36 99 1003.4
20260507211529 50 158 2.0 9.0 0.09 1.36 1.36 99 1002.9
20260507210029 49 145 4.0 10.0 0.15 1.35 1.35 99 1002.3
20260507204526 49 181 0.0 4.0 0.26 1.34 1.34 99 1002.9
20260507203022 49 162 1.0 5.0 0.39 1.32 1.32 99 1003.5
20260507201522 49 153 2.0 7.0 0.51 1.27 1.27 99 1004.0
20260507200031 49 190 2.0 8.0 0.60 1.20 1.20 99 1004.3
20260507194518 49 219 2.0 10.0 0.59 1.07 1.07 99 1004.8
20260507193019 49 230 3.0 13.0 0.55 0.92 0.92 99 1005.3
20260507191515 49 234 5.0 21.0 0.55 0.75 0.75 99 1005.9
20260507190031 50 220 3.0 12.0 0.43 0.59 0.59 98 1005.7
20260507184513 51 255 3.0 15.0 0.33 0.47 0.47 98 1005.8
20260507183018 52 196 5.0 15.0 0.23 0.37 0.37 99 1006.2
20260507181510 52 176 4.0 16.0 0.05 0.19 0.19 98 1005.7
20260507180012 52 141 7.0 16.0 0.02 0.16 0.16 98 1004.9
20260507174511 53 183 7.0 15.0 0.00 0.14 0.14 99 1004.9
20260507173007 53 151 5.0 18.0 0.00 0.14 0.14 99 1005.5
20260507171505 52 122 6.0 15.0 0.00 0.14 0.14 98 1005.8
20260507170004 52 178 4.0 14.0 0.00 0.14 0.14 99 1006.4
20260507164600 52 185 4.0 21.0 0.00 0.14 0.14 98 1006.8
20260507163158 52 150 5.0 12.0 0.00 0.14 0.14 98 1007.1
20260507161556 52 179 6.0 13.0 0.00 0.14 0.14 98 1007.3
20260507160100 52 150 7.0 17.0 0.00 0.14 0.14 98 1007.5
20260507154553 52 155 6.0 12.0 0.00 0.14 0.14 98 1008.1
20260507153055 52 145 6.0 15.0 0.00 0.14 0.14 98 1008.5
20260507151548 53 178 6.0 14.0 0.00 0.14 0.14 99 1009.2
20260507150047 53 180 5.0 15.0 0.00 0.14 0.14 99 1009.3
20260507144549 53 160 4.0 11.0 0.00 0.14 0.14 99 1009.7
20260507143043 52 147 6.0 19.0 0.00 0.14 0.14 99 1009.9
20260507141541 52 149 5.0 17.0 0.00 0.14 0.14 99 1010.4
20260507134540 52 160 5.0 16.0 0.00 0.14 0.14 100 1010.7
20260507133039 52 155 8.0 20.0 0.00 0.14 0.14 100 1010.4
20260507131539 52 154 6.0 18.0 0.01 0.14 0.14 100 1010.3
20260507130049 53 154 8.0 21.0 0.01 0.14 0.14 100 1010.4
20260507124636 53 141 7.0 19.0 0.01 0.14 0.14 100 1010.1
20260507123010 52 160 6.0 16.0 0.01 0.14 0.14 100 1010.7
20260507121509 51 155 6.0 21.0 0.01 0.13 0.13 99 1010.7
20260507120005 51 150 9.0 23.0 0.01 0.13 0.13 100 1011.3
20260507114502 50 166 7.0 18.0 0.04 0.13 0.13 99 1011.5
20260507113001 50 174 6.0 20.0 0.06 0.13 0.13 99 1012.2
20260507111600 51 195 8.0 20.0 0.06 0.12 0.12 99 1012.2
20260507110059 50 164 6.0 16.0 0.07 0.12 0.12 99 1012.1
20260507104556 50 175 6.0 20.0 0.04 0.09 0.09 99 1012.3
20260507103055 51 187 3.0 13.0 0.02 0.07 0.07 99 1012.7
20260507101553 51 264 2.0 10.0 0.01 0.06 0.06 99 1013.2
20260507100056 51 164 3.0 10.0 0.00 0.05 0.05 99 1013.0
20260507094554 52 208 1.0 5.0 0.00 0.05 0.05 99 1012.7
20260507093049 52 224 0.0 7.0 0.00 0.05 0.05 99 1013.0
20260507091648 52 251 3.0 8.0 0.01 0.05 0.05 99 1013.4
20260507090048 52 192 2.0 15.0 0.02 0.05 0.05 99 1013.0
20260507084551 51 187 3.0 9.0 0.02 0.05 0.05 99 1013.2
20260507083048 51 163 3.0 10.0 0.04 0.05 0.05 99 1013.1
20260507081541 51 175 3.0 11.0 0.03 0.04 0.04 99 1013.2
20260507080050 50 220 3.0 9.0 0.03 0.03 0.03 99 1013.7
20260507074543 50 180 2.0 10.0 0.03 0.03 0.03 99 1013.4
20260507073035 50 225 4.0 11.0 0.01 0.01 0.01 99 1014.3
20260507071552 50 210 3.0 9.0 0.01 0.01 0.01 99 1014.4
20260507070034 51 200 1.0 7.0 0.00 0.00 0.00 98 1014.5
20260507064530 51 179 3.0 8.0 0.00 0.00 0.00 99 1014.5
20260507063032 51 179 1.0 4.0 0.00 0.00 0.00 99 1014.6
20260507061526 51 228 1.0 8.0 0.00 0.00 0.00 99 1015.0
20260507060031 51 212 2.0 5.0 0.00 0.00 0.00 98 1015.2
20260507054522 51 250 2.0 5.0 0.00 0.00 0.00 98 1015.4
20260507053023 51 205 0.0 6.0 0.00 0.00 0.00 98 1015.7
20260507051518 51 241 2.0 6.0 0.00 0.00 0.00 98 1016.0
20260507050015 51 251 1.0 8.0 0.00 0.00 0.00 98 1016.4
20260507044513 51 312 2.0 7.0 0.00 0.00 0.00 98 1016.7
20260507043011 50 240 2.0 8.0 0.00 0.00 0.00 98 1017.0
20260507041507 49 300 2.0 7.0 0.00 0.00 0.00 97 1017.2
20260507040117 50 322 1.0 7.0 0.00 0.00 0.00 97 1017.5
20260507034502 51 310 1.0 9.0 0.00 0.00 0.00 97 1017.7
20260507033058 51 289 2.0 10.0 0.00 0.00 0.00 97 1018.0
20260507031558 51 238 2.0 8.0 0.00 0.00 0.00 97 1018.3
20260507030055 51 262 5.0 14.0 0.00 0.00 0.00 97 1018.4
20260507024552 51 254 3.0 10.0 0.00 0.00 0.00 97 1018.5
20260507023050 51 313 2.0 8.0 0.00 0.00 0.00 96 1018.7
20260507021550 51 269 3.0 11.0 0.00 0.00 0.00 96 1018.8
20260507020100 51 309 7.0 13.0 0.00 0.00 0.00 96 1018.8
20260507014600 52 262 3.0 10.0 0.00 0.00 0.00 95 1018.9
20260507013047 52 239 4.0 12.0 0.00 0.00 0.00 95 1018.8
20260507011555 52 210 5.0 12.0 0.00 0.00 0.00 94 1019.1
20260507010046 52 268 3.0 14.0 0.00 0.00 0.00 92 1019.3
20260507004545 52 235 5.0 16.0 0.00 0.00 0.00 91 1019.3
20260507003044 53 193 4.0 13.0 0.00 0.00 0.00 91 1019.4
20260507001552 53 304 5.0 16.0 0.00 0.00 0.00 91 1019.5
20260507000045 53 274 3.0 13.0 0.00 0.00 0.00 90 1019.4
20260506234545 53 307 4.0 12.0 0.00 0.00 0.00 89 1019.5
20260506233040 54 260 6.0 13.0 0.00 0.00 0.00 87 1019.4